Year,Month,Day,Hour,Minute,Value (Times are PST for temperature in C)
2020,07,26,00,00,14.60
2020,07,26,00,01,14.60
2020,07,26,00,02,14.60
2020,07,26,00,03,14.60
2020,07,26,00,04,14.60
2020,07,26,00,05,14.60
2020,07,26,00,06,14.60
2020,07,26,00,07,14.60
2020,07,26,00,08,14.60
2020,07,26,00,09,14.60
2020,07,26,00,10,14.60
2020,07,26,00,11,14.60
2020,07,26,00,12,14.60
2020,07,26,00,13,14.60
2020,07,26,00,14,14.50
2020,07,26,00,15,14.50
2020,07,26,00,16,14.50
2020,07,26,00,17,14.50
2020,07,26,00,18,14.50
2020,07,26,00,19,14.50
2020,07,26,00,20,14.50
2020,07,26,00,21,14.50
2020,07,26,00,22,14.50
2020,07,26,00,23,14.50
2020,07,26,00,24,14.50
2020,07,26,00,25,14.50
2020,07,26,00,26,14.40
2020,07,26,00,27,14.40
2020,07,26,00,28,14.40
2020,07,26,00,29,14.40
2020,07,26,00,30,14.40
2020,07,26,00,31,14.40
2020,07,26,00,32,14.40
2020,07,26,00,33,14.40
2020,07,26,00,34,14.40
2020,07,26,00,35,14.40
2020,07,26,00,36,14.30
2020,07,26,00,37,14.30
2020,07,26,00,38,14.30
2020,07,26,00,39,14.30
2020,07,26,00,40,14.30
2020,07,26,00,41,14.30
2020,07,26,00,42,14.30
2020,07,26,00,43,14.30
2020,07,26,00,44,14.30
2020,07,26,00,45,14.30
2020,07,26,00,46,14.20
2020,07,26,00,47,14.20
2020,07,26,00,48,14.20
2020,07,26,00,49,14.20
2020,07,26,00,50,14.20
2020,07,26,00,51,14.10
2020,07,26,00,52,14.10
2020,07,26,00,53,14.10
2020,07,26,00,54,14.10
2020,07,26,00,55,14.10
2020,07,26,00,56,14.10
2020,07,26,00,57,14.10
2020,07,26,00,58,14.10
2020,07,26,00,59,14.10
2020,07,26,01,00,14.00
2020,07,26,01,01,14.00
2020,07,26,01,02,14.00
2020,07,26,01,03,14.00
2020,07,26,01,04,14.00
2020,07,26,01,05,14.00
2020,07,26,01,06,14.00
2020,07,26,01,07,13.90
2020,07,26,01,08,13.90
2020,07,26,01,09,13.90
2020,07,26,01,10,13.90
2020,07,26,01,11,13.90
2020,07,26,01,12,13.90
2020,07,26,01,13,13.90
2020,07,26,01,14,13.90
2020,07,26,01,15,13.90
2020,07,26,01,16,13.90
2020,07,26,01,17,13.80
2020,07,26,01,18,13.80
2020,07,26,01,19,13.80
2020,07,26,01,20,13.80
2020,07,26,01,21,13.80
2020,07,26,01,22,13.80
2020,07,26,01,23,13.80
2020,07,26,01,24,13.80
2020,07,26,01,25,13.80
2020,07,26,01,26,13.80
2020,07,26,01,27,13.80
2020,07,26,01,28,13.80
2020,07,26,01,29,13.70
2020,07,26,01,30,13.70
2020,07,26,01,31,13.70
2020,07,26,01,32,13.70
2020,07,26,01,33,13.70
2020,07,26,01,34,13.70
2020,07,26,01,35,13.70
2020,07,26,01,36,13.60
2020,07,26,01,37,13.60
2020,07,26,01,38,13.60
2020,07,26,01,39,13.60
2020,07,26,01,40,13.60
2020,07,26,01,41,13.60
2020,07,26,01,42,13.60
2020,07,26,01,43,13.50
2020,07,26,01,44,13.50
2020,07,26,01,45,13.50
2020,07,26,01,46,13.50
2020,07,26,01,47,13.50
2020,07,26,01,48,13.50
2020,07,26,01,49,13.50
2020,07,26,01,50,13.50
2020,07,26,01,51,13.50
2020,07,26,01,52,13.40
2020,07,26,01,53,13.40
2020,07,26,01,54,13.40
2020,07,26,01,55,13.40
2020,07,26,01,56,13.40
2020,07,26,01,57,13.40
2020,07,26,01,58,13.40
2020,07,26,01,59,13.40
2020,07,26,02,00,13.40
2020,07,26,02,01,13.40
2020,07,26,02,02,13.40
2020,07,26,02,03,13.30
2020,07,26,02,04,13.30
2020,07,26,02,05,13.40
2020,07,26,02,06,13.30
2020,07,26,02,07,13.30
2020,07,26,02,08,13.30
2020,07,26,02,09,13.30
2020,07,26,02,10,13.30
2020,07,26,02,11,13.30
2020,07,26,02,12,13.30
2020,07,26,02,13,13.30
2020,07,26,02,14,13.40
2020,07,26,02,15,13.40
2020,07,26,02,16,13.40
2020,07,26,02,17,13.40
2020,07,26,02,18,13.40
2020,07,26,02,19,13.40
2020,07,26,02,20,13.40
2020,07,26,02,21,13.40
2020,07,26,02,22,13.40
2020,07,26,02,23,13.50
2020,07,26,02,24,13.50
2020,07,26,02,25,13.50
2020,07,26,02,26,13.60
2020,07,26,02,27,13.60
2020,07,26,02,28,13.70
2020,07,26,02,29,13.70
2020,07,26,02,30,13.70
2020,07,26,02,31,13.70
2020,07,26,02,32,13.70
2020,07,26,02,33,13.70
2020,07,26,02,34,13.70
2020,07,26,02,35,13.80
2020,07,26,02,36,13.70
2020,07,26,02,37,13.80
2020,07,26,02,38,13.70
2020,07,26,02,39,13.70
2020,07,26,02,40,13.70
2020,07,26,02,41,13.70
2020,07,26,02,42,13.70
2020,07,26,02,43,13.70
2020,07,26,02,44,13.70
2020,07,26,02,45,13.70
2020,07,26,02,46,13.70
2020,07,26,02,47,13.70
2020,07,26,02,48,13.70
2020,07,26,02,49,13.70
2020,07,26,02,50,13.70
2020,07,26,02,51,13.70
2020,07,26,02,52,13.70
2020,07,26,02,53,13.70
2020,07,26,02,54,13.70
2020,07,26,02,55,13.70
2020,07,26,02,56,13.70
2020,07,26,02,57,13.70
2020,07,26,02,58,13.70
2020,07,26,02,59,13.70
2020,07,26,03,00,13.70
2020,07,26,03,01,13.70
2020,07,26,03,02,13.70
2020,07,26,03,03,13.70
2020,07,26,03,04,13.70
2020,07,26,03,05,13.70
2020,07,26,03,06,13.70
2020,07,26,03,07,13.70
2020,07,26,03,08,13.80
2020,07,26,03,09,13.80
2020,07,26,03,10,13.80
2020,07,26,03,11,13.90
2020,07,26,03,12,13.90
2020,07,26,03,13,13.90
2020,07,26,03,14,14.00
2020,07,26,03,15,14.00
2020,07,26,03,16,14.00
2020,07,26,03,17,14.10
2020,07,26,03,18,14.10
2020,07,26,03,19,14.10
2020,07,26,03,20,14.20
2020,07,26,03,21,14.20
2020,07,26,03,22,14.20
2020,07,26,03,23,14.30
2020,07,26,03,24,14.30
2020,07,26,03,25,14.30
2020,07,26,03,26,14.40
2020,07,26,03,27,14.40
2020,07,26,03,28,14.40
2020,07,26,03,29,14.50
2020,07,26,03,30,14.50
2020,07,26,03,31,14.60
2020,07,26,03,32,14.60
2020,07,26,03,33,14.70
2020,07,26,03,34,14.70
2020,07,26,03,35,14.80
2020,07,26,03,36,14.80
2020,07,26,03,37,14.90
2020,07,26,03,38,15.00
2020,07,26,03,39,15.00
2020,07,26,03,40,15.00
2020,07,26,03,41,15.10
2020,07,26,03,42,15.10
2020,07,26,03,43,15.10
2020,07,26,03,44,15.20
2020,07,26,03,45,15.20
2020,07,26,03,46,15.20
2020,07,26,03,47,15.20
2020,07,26,03,48,15.20
2020,07,26,03,49,15.20
2020,07,26,03,50,15.20
2020,07,26,03,51,15.20
2020,07,26,03,52,15.30
2020,07,26,03,53,15.30
2020,07,26,03,54,15.40
2020,07,26,03,55,15.50
2020,07,26,03,56,15.60
2020,07,26,03,57,15.80
2020,07,26,03,58,15.90
2020,07,26,03,59,16.00
2020,07,26,04,00,16.10
2020,07,26,04,01,16.10
2020,07,26,04,02,16.30
2020,07,26,04,03,16.30
2020,07,26,04,04,16.40
2020,07,26,04,05,16.50
2020,07,26,04,06,16.60
2020,07,26,04,07,16.60
2020,07,26,04,08,16.60
2020,07,26,04,09,16.70
2020,07,26,04,10,16.70
2020,07,26,04,11,16.70
2020,07,26,04,12,16.70
2020,07,26,04,13,16.70
2020,07,26,04,14,16.80
2020,07,26,04,15,16.90
2020,07,26,04,16,17.00
2020,07,26,04,17,17.10
2020,07,26,04,18,17.10
2020,07,26,04,19,17.10
2020,07,26,04,20,17.20
2020,07,26,04,21,17.20
2020,07,26,04,22,17.20
2020,07,26,04,23,17.10
2020,07,26,04,24,17.10
2020,07,26,04,25,17.20
2020,07,26,04,26,17.20
2020,07,26,04,27,17.20
2020,07,26,04,28,17.20
2020,07,26,04,29,17.30
2020,07,26,04,30,17.30
2020,07,26,04,31,17.30
2020,07,26,04,32,17.30
2020,07,26,04,33,17.30
2020,07,26,04,34,17.30
2020,07,26,04,35,17.30
2020,07,26,04,36,17.30
2020,07,26,04,37,17.30
2020,07,26,04,38,17.30
2020,07,26,04,39,17.30
2020,07,26,04,40,17.30
2020,07,26,04,41,17.30
2020,07,26,04,42,17.30
2020,07,26,04,43,17.40
2020,07,26,04,44,17.40
2020,07,26,04,45,17.40
2020,07,26,04,46,17.40
2020,07,26,04,47,17.40
2020,07,26,04,48,17.40
2020,07,26,04,49,17.40
2020,07,26,04,50,17.40
2020,07,26,04,51,17.50
2020,07,26,04,52,17.40
2020,07,26,04,53,17.40
2020,07,26,04,54,17.40
2020,07,26,04,55,17.40
2020,07,26,04,56,17.40
2020,07,26,04,57,17.50
2020,07,26,04,58,17.50
2020,07,26,04,59,17.50
2020,07,26,05,00,17.50
2020,07,26,05,01,17.40
2020,07,26,05,02,17.50
2020,07,26,05,03,17.50
2020,07,26,05,04,17.50
2020,07,26,05,05,17.50
2020,07,26,05,06,17.50
2020,07,26,05,07,17.60
2020,07,26,05,08,17.50
2020,07,26,05,09,17.60
2020,07,26,05,10,17.60
2020,07,26,05,11,17.50
2020,07,26,05,12,17.50
2020,07,26,05,13,17.50
2020,07,26,05,14,17.50
2020,07,26,05,15,17.50
2020,07,26,05,16,17.50
2020,07,26,05,17,17.50
2020,07,26,05,18,17.40
2020,07,26,05,19,17.40
2020,07,26,05,20,17.40
2020,07,26,05,21,17.50
2020,07,26,05,22,17.50
2020,07,26,05,23,17.50
2020,07,26,05,24,17.50
2020,07,26,05,25,17.50
2020,07,26,05,26,17.50
2020,07,26,05,27,17.40
2020,07,26,05,28,17.40
2020,07,26,05,29,17.40
2020,07,26,05,30,17.40
2020,07,26,05,31,17.30
2020,07,26,05,32,17.30
2020,07,26,05,33,17.30
2020,07,26,05,34,17.30
2020,07,26,05,35,17.30
2020,07,26,05,36,17.30
2020,07,26,05,37,17.30
2020,07,26,05,38,17.20
2020,07,26,05,39,17.20
2020,07,26,05,40,17.20
2020,07,26,05,41,17.20
2020,07,26,05,42,17.10
2020,07,26,05,43,17.10
2020,07,26,05,44,17.10
2020,07,26,05,45,17.10
2020,07,26,05,46,17.10
2020,07,26,05,47,17.10
2020,07,26,05,48,17.00
2020,07,26,05,49,17.00
2020,07,26,05,50,17.00
2020,07,26,05,51,17.00
2020,07,26,05,52,16.90
2020,07,26,05,53,16.90
2020,07,26,05,54,16.90
2020,07,26,05,55,17.00
2020,07,26,05,56,17.00
2020,07,26,05,57,17.00
2020,07,26,05,58,17.10
2020,07,26,05,59,17.10
2020,07,26,06,00,17.10
2020,07,26,06,01,17.10
2020,07,26,06,02,17.10
2020,07,26,06,03,17.10
2020,07,26,06,04,17.10
2020,07,26,06,05,17.10
2020,07,26,06,06,17.10
2020,07,26,06,07,17.10
2020,07,26,06,08,17.10
2020,07,26,06,09,17.20
2020,07,26,06,10,17.20
2020,07,26,06,11,17.30
2020,07,26,06,12,17.30
2020,07,26,06,13,17.30
2020,07,26,06,14,17.30
2020,07,26,06,15,17.30
2020,07,26,06,16,17.30
2020,07,26,06,17,17.30
2020,07,26,06,18,17.30
2020,07,26,06,19,17.30
2020,07,26,06,20,17.30
2020,07,26,06,21,17.30
2020,07,26,06,22,17.30
2020,07,26,06,23,17.20
2020,07,26,06,24,17.20
2020,07,26,06,25,17.20
2020,07,26,06,26,17.20
2020,07,26,06,27,17.20
2020,07,26,06,28,17.10
2020,07,26,06,29,17.20
2020,07,26,06,30,17.20
2020,07,26,06,31,17.20
2020,07,26,06,32,17.20
2020,07,26,06,33,17.20
2020,07,26,06,34,17.20
2020,07,26,06,35,17.20
2020,07,26,06,36,17.20
2020,07,26,06,37,17.30
2020,07,26,06,38,17.30
2020,07,26,06,39,17.30
2020,07,26,06,40,17.30
2020,07,26,06,41,17.30
2020,07,26,06,42,17.30
2020,07,26,06,43,17.30
2020,07,26,06,44,17.30
2020,07,26,06,45,17.30
2020,07,26,06,46,17.30
2020,07,26,06,47,17.30
2020,07,26,06,48,17.30
2020,07,26,06,49,17.30
2020,07,26,06,50,17.30
2020,07,26,06,51,17.30
2020,07,26,06,52,17.30
2020,07,26,06,53,17.30
2020,07,26,06,54,17.30
2020,07,26,06,55,17.30
2020,07,26,06,56,17.30
2020,07,26,06,57,17.30
2020,07,26,06,58,17.30
2020,07,26,06,59,17.30
2020,07,26,07,00,17.30
2020,07,26,07,01,17.30
2020,07,26,07,02,17.30
2020,07,26,07,03,17.30
2020,07,26,07,04,17.30
2020,07,26,07,05,17.30
2020,07,26,07,06,17.30
2020,07,26,07,07,17.30
2020,07,26,07,08,17.30
2020,07,26,07,09,17.30
2020,07,26,07,10,17.30
2020,07,26,07,11,17.30
2020,07,26,07,12,17.30
2020,07,26,07,13,17.30
2020,07,26,07,14,17.30
2020,07,26,07,15,17.30
2020,07,26,07,16,17.30
2020,07,26,07,17,17.30
2020,07,26,07,18,17.30
2020,07,26,07,19,17.40
2020,07,26,07,20,17.40
2020,07,26,07,21,17.40
2020,07,26,07,22,17.40
2020,07,26,07,23,17.50
2020,07,26,07,24,17.50
2020,07,26,07,25,17.50
2020,07,26,07,26,17.50
2020,07,26,07,27,17.60
2020,07,26,07,28,17.60
2020,07,26,07,29,17.60
2020,07,26,07,30,17.60
2020,07,26,07,31,17.60
2020,07,26,07,32,17.60
2020,07,26,07,33,17.60
2020,07,26,07,34,17.70
2020,07,26,07,35,17.70
2020,07,26,07,36,17.60
2020,07,26,07,37,17.70
2020,07,26,07,38,17.70
2020,07,26,07,39,17.70
2020,07,26,07,40,17.70
2020,07,26,07,41,17.70
2020,07,26,07,42,17.70
2020,07,26,07,43,17.70
2020,07,26,07,44,17.70
2020,07,26,07,45,17.80
2020,07,26,07,46,17.80
2020,07,26,07,47,17.80
2020,07,26,07,48,17.80
2020,07,26,07,49,17.80
2020,07,26,07,50,17.80
2020,07,26,07,51,17.80
2020,07,26,07,52,17.80
2020,07,26,07,53,17.80
2020,07,26,07,54,17.80
2020,07,26,07,55,17.80
2020,07,26,07,56,17.80
2020,07,26,07,57,17.80
2020,07,26,07,58,17.90
2020,07,26,07,59,17.90
2020,07,26,08,00,17.90
2020,07,26,08,01,17.90
2020,07,26,08,02,17.90
2020,07,26,08,03,18.00
2020,07,26,08,04,18.00
2020,07,26,08,05,18.00
2020,07,26,08,06,18.00
2020,07,26,08,07,18.00
2020,07,26,08,08,18.10
2020,07,26,08,09,18.10
2020,07,26,08,10,18.10
2020,07,26,08,11,18.10
2020,07,26,08,12,18.10
2020,07,26,08,13,18.10
2020,07,26,08,14,18.10
2020,07,26,08,15,18.20
2020,07,26,08,16,18.20
2020,07,26,08,17,18.20
2020,07,26,08,18,18.20
2020,07,26,08,19,18.20
2020,07,26,08,20,18.20
2020,07,26,08,21,18.20
2020,07,26,08,22,18.20
2020,07,26,08,23,18.20
2020,07,26,08,24,18.20
2020,07,26,08,25,18.30
2020,07,26,08,26,18.30
2020,07,26,08,27,18.30
2020,07,26,08,28,18.30
2020,07,26,08,29,18.30
2020,07,26,08,30,18.30
2020,07,26,08,31,18.30
2020,07,26,08,32,18.30
2020,07,26,08,33,18.30
2020,07,26,08,34,18.30
2020,07,26,08,35,18.30
2020,07,26,08,36,18.30
2020,07,26,08,37,18.30
2020,07,26,08,38,18.40
2020,07,26,08,39,18.40
2020,07,26,08,40,18.40
2020,07,26,08,41,18.40
2020,07,26,08,42,18.40
2020,07,26,08,43,18.40
2020,07,26,08,44,18.50
2020,07,26,08,45,18.50
2020,07,26,08,46,18.50
2020,07,26,08,47,18.50
2020,07,26,08,48,18.50
2020,07,26,08,49,18.50
2020,07,26,08,50,18.50
2020,07,26,08,51,18.50
2020,07,26,08,52,18.50
2020,07,26,08,53,18.50
2020,07,26,08,54,18.50
2020,07,26,08,55,18.60
2020,07,26,08,56,18.60
2020,07,26,08,57,18.70
2020,07,26,08,58,18.70
2020,07,26,08,59,18.70
2020,07,26,09,00,18.70
2020,07,26,09,01,18.70
2020,07,26,09,02,18.70
2020,07,26,09,03,18.80
2020,07,26,09,04,18.80
2020,07,26,09,05,18.80
2020,07,26,09,06,18.80
2020,07,26,09,07,18.80
2020,07,26,09,08,18.80
2020,07,26,09,09,18.90
2020,07,26,09,10,18.90
2020,07,26,09,11,18.90
2020,07,26,09,12,18.90
2020,07,26,09,13,18.90
2020,07,26,09,14,18.90
2020,07,26,09,15,18.90
2020,07,26,09,16,19.00
2020,07,26,09,17,19.00
2020,07,26,09,18,19.00
2020,07,26,09,19,19.00
2020,07,26,09,20,19.00
2020,07,26,09,21,19.00
2020,07,26,09,22,19.00
2020,07,26,09,23,19.00
2020,07,26,09,24,19.00
2020,07,26,09,25,19.10
2020,07,26,09,26,19.00
2020,07,26,09,27,19.00
2020,07,26,09,28,19.00
2020,07,26,09,29,19.00
2020,07,26,09,30,19.10
2020,07,26,09,31,19.10
2020,07,26,09,32,19.10
2020,07,26,09,33,19.10
2020,07,26,09,34,19.10
2020,07,26,09,35,19.10
2020,07,26,09,36,19.00
2020,07,26,09,37,19.10
2020,07,26,09,38,19.10
2020,07,26,09,39,19.10
2020,07,26,09,40,19.10
2020,07,26,09,41,19.20
2020,07,26,09,42,19.20
2020,07,26,09,43,19.30
2020,07,26,09,44,19.30
2020,07,26,09,45,19.40
2020,07,26,09,46,19.50
2020,07,26,09,47,19.60
2020,07,26,09,48,19.60
2020,07,26,09,49,19.70
2020,07,26,09,50,19.80
2020,07,26,09,51,19.90
2020,07,26,09,52,19.90
2020,07,26,09,53,20.00
2020,07,26,09,54,20.10
2020,07,26,09,55,20.10
2020,07,26,09,56,20.20
2020,07,26,09,57,20.30
2020,07,26,09,58,20.30
2020,07,26,09,59,20.30
2020,07,26,10,00,20.30
2020,07,26,10,01,20.30
2020,07,26,10,02,20.30
2020,07,26,10,03,20.40
2020,07,26,10,04,20.40
2020,07,26,10,05,20.50
2020,07,26,10,06,20.50
2020,07,26,10,07,20.60
2020,07,26,10,08,20.60
2020,07,26,10,09,20.60
2020,07,26,10,10,20.60
2020,07,26,10,11,20.60
2020,07,26,10,12,20.60
2020,07,26,10,13,20.60
2020,07,26,10,14,20.60
2020,07,26,10,15,20.60
2020,07,26,10,16,20.60
2020,07,26,10,17,20.70
2020,07,26,10,18,20.70
2020,07,26,10,19,20.70
2020,07,26,10,20,20.70
2020,07,26,10,21,20.70
2020,07,26,10,22,20.70
2020,07,26,10,23,20.70
2020,07,26,10,24,20.60
2020,07,26,10,25,20.70
2020,07,26,10,26,20.70
2020,07,26,10,27,20.80
2020,07,26,10,28,20.80
2020,07,26,10,29,20.90
2020,07,26,10,30,20.90
2020,07,26,10,31,21.00
2020,07,26,10,32,21.10
2020,07,26,10,33,21.10
2020,07,26,10,34,21.20
2020,07,26,10,35,21.20
2020,07,26,10,36,21.20
2020,07,26,10,37,21.20
2020,07,26,10,38,21.20
2020,07,26,10,39,21.20
2020,07,26,10,40,21.30
2020,07,26,10,41,21.30
2020,07,26,10,42,21.40
2020,07,26,10,43,21.40
2020,07,26,10,44,21.40
2020,07,26,10,45,21.40
2020,07,26,10,46,21.50
2020,07,26,10,47,21.50
2020,07,26,10,48,21.60
2020,07,26,10,49,21.70
2020,07,26,10,50,21.80
2020,07,26,10,51,21.90
2020,07,26,10,52,21.90
2020,07,26,10,53,21.90
2020,07,26,10,54,21.90
2020,07,26,10,55,21.90
2020,07,26,10,56,21.80
2020,07,26,10,57,21.80
2020,07,26,10,58,21.70
2020,07,26,10,59,21.80
2020,07,26,11,00,21.70
2020,07,26,11,01,21.70
2020,07,26,11,02,21.70
2020,07,26,11,03,21.70
2020,07,26,11,04,21.70
2020,07,26,11,05,21.70
2020,07,26,11,06,21.80
2020,07,26,11,07,21.90
2020,07,26,11,08,22.00
2020,07,26,11,09,22.00
2020,07,26,11,10,22.10
2020,07,26,11,11,22.20
2020,07,26,11,12,22.20
2020,07,26,11,13,22.20
2020,07,26,11,14,22.10
2020,07,26,11,15,22.00
2020,07,26,11,16,22.00
2020,07,26,11,17,22.00
2020,07,26,11,18,22.00
2020,07,26,11,19,22.10
2020,07,26,11,20,22.00
2020,07,26,11,21,22.10
2020,07,26,11,22,22.10
2020,07,26,11,23,22.20
2020,07,26,11,24,22.30
2020,07,26,11,25,22.30
2020,07,26,11,26,22.30
2020,07,26,11,27,22.40
2020,07,26,11,28,22.30
2020,07,26,11,29,22.40
2020,07,26,11,30,22.30
2020,07,26,11,31,22.30
2020,07,26,11,32,22.30
2020,07,26,11,33,22.30
2020,07,26,11,34,22.30
2020,07,26,11,35,22.20
2020,07,26,11,36,22.10
2020,07,26,11,37,22.00
2020,07,26,11,38,22.00
2020,07,26,11,39,22.00
2020,07,26,11,40,22.10
2020,07,26,11,41,22.20
2020,07,26,11,42,22.20
2020,07,26,11,43,22.30
2020,07,26,11,44,22.40
2020,07,26,11,45,22.40
2020,07,26,11,46,22.40
2020,07,26,11,47,22.40
2020,07,26,11,48,22.40
2020,07,26,11,49,22.50
2020,07,26,11,50,22.60
2020,07,26,11,51,22.60
2020,07,26,11,52,22.70
2020,07,26,11,53,22.70
2020,07,26,11,54,22.70
2020,07,26,11,55,22.70
2020,07,26,11,56,22.80
2020,07,26,11,57,22.80
2020,07,26,11,58,22.80
2020,07,26,11,59,22.90
2020,07,26,12,00,22.90
2020,07,26,12,01,22.90
2020,07,26,12,02,22.90
2020,07,26,12,03,23.00
2020,07,26,12,04,23.00
2020,07,26,12,05,23.00
2020,07,26,12,06,22.90
2020,07,26,12,07,22.90
2020,07,26,12,08,22.90
2020,07,26,12,09,22.90
2020,07,26,12,10,22.80
2020,07,26,12,11,22.80
2020,07,26,12,12,22.70
2020,07,26,12,13,22.70
2020,07,26,12,14,22.70
2020,07,26,12,15,22.80
2020,07,26,12,16,22.80
2020,07,26,12,17,22.90
2020,07,26,12,18,22.90
2020,07,26,12,19,22.90
2020,07,26,12,20,22.90
2020,07,26,12,21,22.90
2020,07,26,12,22,22.90
2020,07,26,12,23,22.90
2020,07,26,12,24,22.90
2020,07,26,12,25,22.80
2020,07,26,12,26,22.80
2020,07,26,12,27,22.90
2020,07,26,12,28,22.90
2020,07,26,12,29,23.00
2020,07,26,12,30,23.10
2020,07,26,12,31,23.10
2020,07,26,12,32,23.10
2020,07,26,12,33,23.20
2020,07,26,12,34,23.20
2020,07,26,12,35,23.20
2020,07,26,12,36,23.30
2020,07,26,12,37,23.40
2020,07,26,12,38,23.50
2020,07,26,12,39,23.60
2020,07,26,12,40,23.80
2020,07,26,12,41,23.80
2020,07,26,12,42,23.80
2020,07,26,12,43,23.70
2020,07,26,12,44,23.70
2020,07,26,12,45,23.60
2020,07,26,12,46,23.60
2020,07,26,12,47,23.50
2020,07,26,12,48,23.60
2020,07,26,12,49,23.70
2020,07,26,12,50,23.70
2020,07,26,12,51,23.80
2020,07,26,12,52,23.60
2020,07,26,12,53,23.60
2020,07,26,12,54,23.50
2020,07,26,12,55,23.40
2020,07,26,12,56,23.50
2020,07,26,12,57,23.50
2020,07,26,12,58,23.40
2020,07,26,12,59,23.40
2020,07,26,13,00,23.50
2020,07,26,13,01,23.40
2020,07,26,13,02,23.40
2020,07,26,13,03,23.40
2020,07,26,13,04,23.30
2020,07,26,13,05,23.30
2020,07,26,13,06,23.30
2020,07,26,13,07,23.40
2020,07,26,13,08,23.60
2020,07,26,13,09,23.70
2020,07,26,13,10,23.80
2020,07,26,13,11,23.90
2020,07,26,13,12,23.90
2020,07,26,13,13,23.90
2020,07,26,13,14,23.90
2020,07,26,13,15,23.90
2020,07,26,13,16,24.00
2020,07,26,13,17,24.10
2020,07,26,13,18,24.10
2020,07,26,13,19,24.00
2020,07,26,13,20,24.10
2020,07,26,13,21,24.10
2020,07,26,13,22,24.00
2020,07,26,13,23,23.90
2020,07,26,13,24,23.80
2020,07,26,13,25,23.80
2020,07,26,13,26,23.90
2020,07,26,13,27,23.90
2020,07,26,13,28,23.90
2020,07,26,13,29,23.90
2020,07,26,13,30,24.00
2020,07,26,13,31,24.10
2020,07,26,13,32,24.20
2020,07,26,13,33,24.20
2020,07,26,13,34,24.20
2020,07,26,13,35,24.20
2020,07,26,13,36,24.20
2020,07,26,13,37,24.20
2020,07,26,13,38,24.10
2020,07,26,13,39,24.00
2020,07,26,13,40,23.90
2020,07,26,13,41,23.80
2020,07,26,13,42,23.80
2020,07,26,13,43,23.90
2020,07,26,13,44,23.90
2020,07,26,13,45,24.00
2020,07,26,13,46,24.20
2020,07,26,13,47,24.20
2020,07,26,13,48,24.30
2020,07,26,13,49,24.30
2020,07,26,13,50,24.30
2020,07,26,13,51,24.30
2020,07,26,13,52,24.30
2020,07,26,13,53,24.30
2020,07,26,13,54,24.40
2020,07,26,13,55,24.40
2020,07,26,13,56,24.40
2020,07,26,13,57,24.40
2020,07,26,13,58,24.50
2020,07,26,13,59,24.60
2020,07,26,14,00,24.70
2020,07,26,14,01,24.70
2020,07,26,14,02,24.60
2020,07,26,14,03,24.50
2020,07,26,14,04,24.40
2020,07,26,14,05,24.40
2020,07,26,14,06,24.30
2020,07,26,14,07,24.30
2020,07,26,14,08,24.40
2020,07,26,14,09,24.40
2020,07,26,14,10,24.50
2020,07,26,14,11,24.60
2020,07,26,14,12,24.60
2020,07,26,14,13,24.60
2020,07,26,14,14,24.70
2020,07,26,14,15,24.70
2020,07,26,14,16,24.70
2020,07,26,14,17,24.70
2020,07,26,14,18,24.70
2020,07,26,14,19,24.70
2020,07,26,14,20,24.70
2020,07,26,14,21,24.70
2020,07,26,14,22,24.80
2020,07,26,14,23,24.90
2020,07,26,14,24,24.90
2020,07,26,14,25,25.00
2020,07,26,14,26,25.10
2020,07,26,14,27,25.10
2020,07,26,14,28,25.20
2020,07,26,14,29,25.20
2020,07,26,14,30,25.20
2020,07,26,14,31,25.30
2020,07,26,14,32,25.40
2020,07,26,14,33,25.40
2020,07,26,14,34,25.40
2020,07,26,14,35,25.40
2020,07,26,14,36,25.50
2020,07,26,14,37,25.50
2020,07,26,14,38,25.60
2020,07,26,14,39,25.60
2020,07,26,14,40,25.70
2020,07,26,14,41,25.80
2020,07,26,14,42,25.80
2020,07,26,14,43,25.70
2020,07,26,14,44,25.50
2020,07,26,14,45,25.50
2020,07,26,14,46,25.50
2020,07,26,14,47,25.50
2020,07,26,14,48,25.50
2020,07,26,14,49,25.50
2020,07,26,14,50,25.50
2020,07,26,14,51,25.50
2020,07,26,14,52,25.50
2020,07,26,14,53,25.50
2020,07,26,14,54,25.50
2020,07,26,14,55,25.50
2020,07,26,14,56,25.50
2020,07,26,14,57,25.50
2020,07,26,14,58,25.50
2020,07,26,14,59,25.40
2020,07,26,15,00,25.40
2020,07,26,15,01,25.50
2020,07,26,15,02,25.50
2020,07,26,15,03,25.50
2020,07,26,15,04,25.50
2020,07,26,15,05,25.50
2020,07,26,15,06,25.50
2020,07,26,15,07,25.60
2020,07,26,15,08,25.60
2020,07,26,15,09,25.70
2020,07,26,15,10,25.80
2020,07,26,15,11,25.80
2020,07,26,15,12,25.80
2020,07,26,15,13,25.90
2020,07,26,15,14,25.90
2020,07,26,15,15,26.00
2020,07,26,15,16,26.00
2020,07,26,15,17,26.10
2020,07,26,15,18,26.10
2020,07,26,15,19,26.10
2020,07,26,15,20,26.20
2020,07,26,15,21,26.20
2020,07,26,15,22,26.20
2020,07,26,15,23,26.20
2020,07,26,15,24,26.30
2020,07,26,15,25,26.20
2020,07,26,15,26,26.30
2020,07,26,15,27,26.30
2020,07,26,15,28,26.40
2020,07,26,15,29,26.50
2020,07,26,15,30,26.50
2020,07,26,15,31,26.50
2020,07,26,15,32,26.50
2020,07,26,15,33,26.40
2020,07,26,15,34,26.40
2020,07,26,15,35,26.40
2020,07,26,15,36,26.40
2020,07,26,15,37,26.40
2020,07,26,15,38,26.40
2020,07,26,15,39,26.30
2020,07,26,15,40,26.20
2020,07,26,15,41,26.30
2020,07,26,15,42,26.30
2020,07,26,15,43,26.40
2020,07,26,15,44,26.50
2020,07,26,15,45,26.50
2020,07,26,15,46,26.60
2020,07,26,15,47,26.70
2020,07,26,15,48,26.80
2020,07,26,15,49,26.80
2020,07,26,15,50,26.90
2020,07,26,15,51,26.80
2020,07,26,15,52,26.70
2020,07,26,15,53,26.70
2020,07,26,15,54,26.70
2020,07,26,15,55,26.80
2020,07,26,15,56,26.80
2020,07,26,15,57,26.90
2020,07,26,15,58,27.00
2020,07,26,15,59,27.10
2020,07,26,16,00,27.10
2020,07,26,16,01,27.10
2020,07,26,16,02,27.10
2020,07,26,16,03,27.20
2020,07,26,16,04,27.20
2020,07,26,16,05,27.30
2020,07,26,16,06,27.30
2020,07,26,16,07,27.30
2020,07,26,16,08,27.40
2020,07,26,16,09,27.40
2020,07,26,16,10,27.40
2020,07,26,16,11,27.40
2020,07,26,16,12,27.50
2020,07,26,16,13,27.50
2020,07,26,16,14,27.50
2020,07,26,16,15,27.60
2020,07,26,16,16,27.60
2020,07,26,16,17,27.70
2020,07,26,16,18,27.80
2020,07,26,16,19,27.80
2020,07,26,16,20,27.80
2020,07,26,16,21,27.80
2020,07,26,16,22,27.80
2020,07,26,16,23,27.70
2020,07,26,16,24,27.70
2020,07,26,16,25,27.70
2020,07,26,16,26,27.80
2020,07,26,16,27,27.80
2020,07,26,16,28,27.90
2020,07,26,16,29,28.00
2020,07,26,16,30,28.10
2020,07,26,16,31,28.20
2020,07,26,16,32,28.20
2020,07,26,16,33,28.30
2020,07,26,16,34,28.30
2020,07,26,16,35,28.20
2020,07,26,16,36,28.20
2020,07,26,16,37,28.20
2020,07,26,16,38,28.10
2020,07,26,16,39,28.10
2020,07,26,16,40,28.10
2020,07,26,16,41,28.00
2020,07,26,16,42,28.00
2020,07,26,16,43,28.10
2020,07,26,16,44,28.10
2020,07,26,16,45,28.10
2020,07,26,16,46,28.10
2020,07,26,16,47,28.10
2020,07,26,16,48,28.00
2020,07,26,16,49,28.00
2020,07,26,16,50,28.00
2020,07,26,16,51,28.10
2020,07,26,16,52,28.20
2020,07,26,16,53,28.20
2020,07,26,16,54,28.20
2020,07,26,16,55,28.20
2020,07,26,16,56,28.30
2020,07,26,16,57,28.30
2020,07,26,16,58,28.30
2020,07,26,16,59,28.30
2020,07,26,17,00,28.30
2020,07,26,17,01,28.20
2020,07,26,17,02,28.20
2020,07,26,17,03,28.10
2020,07,26,17,04,28.10
2020,07,26,17,05,28.10
2020,07,26,17,06,28.20
2020,07,26,17,07,28.20
2020,07,26,17,08,28.30
2020,07,26,17,09,28.30
2020,07,26,17,10,28.40
2020,07,26,17,11,28.50
2020,07,26,17,12,28.60
2020,07,26,17,13,28.70
2020,07,26,17,14,28.70
2020,07,26,17,15,28.70
2020,07,26,17,16,28.70
2020,07,26,17,17,28.70
2020,07,26,17,18,28.70
2020,07,26,17,19,28.70